COSMOS 2242

Last updated on Mon Sep 21 2026 00:02:08 GMT+0000 (Coordinated Universal Time)

1 22626U 93024A 26262.96092741 .00001019 00000+0 85738-4 0 9997 2 22626 82.5150 80.8432 0016483 16.5043 343.6712 14.97137215809459
UTC large
Height (km)
Speed (km/s)
/
Latitude / Longitude
Inclination (degrees)
Orbital Period (minutes)
Azimuth
Elevation
Range (km)
Doppler Factor

Next 0 passes for location: London (51.5072 / 0.1276)

No passes found over London.
COSMOS 2242